Flag for U.S.A. Weather past 2 weeks in Acworth, Georgia, U.S.A.

Now
78 °F

Clear.


Feels Like: 81 °F
Forecast: 69 / 86 °F
Wind: No wind

Location: Cartersville Airport

Current Time: Jul 28, 2014 at 6:23:01 AM

Latest Report: Jul 28, 2014 at 5:53 AM


Visibility: 10 mi

Pressure: 29.87 "Hg

Humidity: 82%

Dew point: 72 °F

Location of AcworthLocation

Historic Weather in Acworth — Graph

°F

Acworth temperature yesterday

Maximum temperature yesterday: 94 °F (at 5:53 PM)
Minimum temperature yesterday: 66 °F (at 3:53 AM)
Average temperature yesterday: 80 °F

Past Weeks' High & Low Weather Summary

 TemperatureHumidityPressure
High94 °F (Jul 27, 5:53 PM)97% (Jul 16, 1:53 AM)30.14 "Hg (Jul 16, 1:53 AM)
Low56 °F (Jul 17, 5:53 AM)33% (Jul 16, 4:53 PM)29.82 "Hg (Jul 15, 4:53 PM)
Average75 °F76%29.99 "Hg
* Reported Jul 13 4:53 AM — Jul 28 4:53 AM, Acworth, Weather by CustomWeather, © 2014

Note: Actual official high and low records may vary slightly from our data, if they occured in-between our weather recording intervals... More about our weather records

Advertising

Acworth weather history for previous 24 hours

 ConditionsComfort  
Time TempWeatherWind HumidityBarometerVisibility
4:53 AM
Jul 28
80 °FPartly cloudy.No wind76%29.88 "Hg10 mi
3:53 AM80 °FPartly cloudy.No wind76%29.89 "Hg10 mi
2:53 AM81 °FPassing clouds.No wind72%29.89 "Hg10 mi
1:53 AM79 °FPassing clouds.3 mph77%29.88 "Hg10 mi
12:53 AM78 °FClear.No wind82%29.91 "Hg10 mi
11:53 PM
Jul 27
81 °FClear.No wind74%29.91 "Hg10 mi
10:53 PM82 °FPassing clouds.No wind72%29.92 "Hg10 mi
9:53 PM83 °FPassing clouds.3 mph70%29.90 "Hg10 mi
8:53 PM86 °FSunny.No wind63%29.90 "Hg10 mi
7:53 PM89 °FSunny.No wind53%29.89 "Hg10 mi
6:53 PM92 °FSunny.3 mph46%29.88 "Hg10 mi
5:53 PM94 °FSunny.No wind43%29.89 "Hg10 mi
4:53 PM92 °FPassing clouds.6 mph47%29.92 "Hg10 mi
3:53 PM93 °FScattered clouds.5 mph44%29.93 "Hg10 mi
2:53 PM91 °FPassing clouds.7 mph50%29.95 "Hg10 mi
1:53 PM92 °FPartly sunny.N/A49%29.98 "Hg10 mi
12:53 PM91 °FPartly sunny.3 mph54%29.99 "Hg10 mi
11:53 AM88 °FScattered clouds.No wind59%30.01 "Hg10 mi
10:53 AM85 °FScattered clouds.No wind65%30.01 "Hg10 mi
9:53 AM80 °FSunny.5 mph71%30.01 "Hg10 mi
8:53 AM74 °FSunny.No wind79%30.02 "Hg10 mi
7:53 AM69 °FSunny.No wind90%30.01 "Hg9 mi
6:53 AM66 °FClear.No wind93%29.98 "Hg10 mi
Weather by CustomWeather, © 2014

See weather overviewHow to use our weather pages